Hourly Data Report for August 05, 2016

TORONTO CITY
ONTARIO

43°40'00.000" N
79°24'00.000" W
112.50 m
6158355
71508
XTO

Download Data

Hourly Data (August 2016)
Hourly Data Report for August 5, 2016
TIME
LST
Temp Definition
°C
Dew Point Definition
°C
Rel Hum Definition
%
Precip. Amount Definition
mm

Wind Dir Definition
10's deg

Wind Spd Definition
km/h
Visibility Definition
km
Stn Press Definition
kPa
Hmdx Definition


Wind Chill Definition


Weather Definition


00:00 25.3 20.0 72 0.0 LegendMM LegendMM   99.99 33   LegendNANA
01:00 24.7 20.7 79 0.0 LegendMM LegendMM   99.94 33   LegendNANA
02:00 24.0 21.2 84 0.0 LegendMM LegendMM   99.93 33   LegendNANA
03:00 24.4 20.6 79 0.0 LegendMM LegendMM   99.90 32   LegendNANA
04:00 24.3 20.2 78 0.0 LegendMM LegendMM   99.87 32   LegendNANA
05:00 24.1 19.8 77 0.0 LegendMM LegendMM   99.85 32   LegendNANA
06:00 24.0 19.9 78 0.0 LegendMM LegendMM   99.83 31   LegendNANA
07:00 24.7 20.0 75 0.0 LegendMM LegendMM   99.82 32   LegendNANA
08:00 25.3 20.3 74 0.0 LegendMM LegendMM   99.79 33   LegendNANA
09:00 26.1 20.9 73 0.0 LegendMM LegendMM   99.73 34   LegendNANA
10:00 28.0 21.5 68 0.0 LegendMM LegendMM   99.69 37   LegendNANA
11:00 29.2 21.4 63 0.0 LegendMM LegendMM   99.64 38   LegendNANA
12:00 30.9 22.1 60 0.0 LegendMM LegendMM   99.56 40   LegendNANA
13:00 31.0 21.4 57 0.0 LegendMM LegendMM   99.47 40   LegendNANA
14:00 29.4 20.9 60 0.0 LegendMM LegendMM   99.39 38   LegendNANA
15:00 30.0 21.4 60 0.0 LegendMM LegendMM   99.38 39   LegendNANA
16:00 31.1 19.8 51 0.0 LegendMM LegendMM   99.32 39   LegendNANA
17:00 29.7 18.9 52 0.0 LegendMM LegendMM   99.29 36   LegendNANA
18:00 30.2 19.3 52 0.0 LegendMM LegendMM   99.27 37   LegendNANA
19:00 29.6 19.8 56 0.0 LegendMM LegendMM   99.26 37   LegendNANA
20:00 28.9 20.1 59 0.0 LegendMM LegendMM   99.30 37   LegendNANA
21:00 26.8 19.6 65 0.0 LegendMM LegendMM   99.38 34   LegendNANA
22:00 25.4 18.7 67 0.0 LegendMM LegendMM   99.44 32   LegendNANA
23:00 25.5 14.9 52 0.0 LegendMM LegendMM   99.44 29   LegendNANA

Notes on Data Quality.

Legend

  • E = Estimated
  • M = Missing
  • NA = Not Available*
  • [empty] = Indicates an unobserved value
Date modified: